Wind_Speed
38 38 37 37 36 36 35 34 34 34 34 32 31 29 27 28 26 23 24 25 22 22 23 23 23 27 30 30 28 27 30 32 30 27 25 25 26 27 29 30 29 27 24 22 22 22 21 22 22 20 17 17 17 13 11 14 17 20 23 24 25 23 19 19 21 20 19 20 21 22 24 28 33 32 32 35 35 36 34 26 26 29 28 29 26 19 21
38 38 38 37 36 36 35 34 33 33 32 32 31 29 27 28 28 24 23 23 22 21 19 17 19 22 23 24 25 27 28 28 26 24 23 23 24 25 26 27 28 28 25 24 24 23 22 22 22 22 20 18 20 21 16 14 15 17 17 19 23 25 22 20 19 15 15 18 18 20 24 27 31 33 32 35 36 36 35 32 30 31 31 31 24 18 22
38 37 37 36 35 35 34 33 32 31 30 30 30 29 26 25 25 22 19 19 19 19 17 15 16 17 17 19 21 22 26 27 27 26 24 22 21 22 23 23 24 26 25 25 26 25 24 22 19 19 21 20 21 23 22 19 17 16 14 14 19 23 24 24 22 15 12 15 17 21 25 27 29 30 31 33 35 36 35 33 32 30 28 32 30 24 26
37 36 36 36 34 34 33 31 30 29 28 27 27 27 24 22 21 18 15 16 18 18 17 16 16 15 16 17 16 17 20 22 23 25 27 26 23 22 21 20 21 23 25 25 26 26 26 23 19 17 16 17 19 23 25 22 19 19 19 17 16 18 21 25 28 26 22 20 20 21 23 25 28 30 31 31 32 36 37 34 35 31 26 30 34 30 27
35 35 34 33 32 32 31 29 28 27 26 25 25 25 22 20 19 15 14 15 14 12 13 14 15 15 15 15 13 13 14 15 16 19 23 25 25 24 22 21 22 22 24 25 25 24 24 25 24 21 17 15 15 19 24 24 22 23 24 20 17 18 20 23 27 30 30 26 23 22 22 24 27 28 30 31 29 31 36 37 37 33 26 27 31 30 30
32 30 30 29 28 28 27 26 26 25 24 23 23 23 20 17 17 15 16 17 14 12 13 15 16 16 15 16 16 15 15 14 13 14 17 20 22 24 24 25 26 24 22 23 24 23 23 25 25 24 22 19 16 17 19 21 23 24 21 18 18 19 21 23 25 28 31 31 29 27 25 25 26 27 29 31 31 31 33 35 37 35 32 29 26 27 31
29 27 27 26 25 25 24 24 24 23 23 21 20 21 19 16 16 16 18 21 20 19 19 19 21 20 17 17 18 17 17 16 14 12 13 16 19 22 23 23 25 27 26 24 23 23 23 23 24 24 23 22 21 20 19 19 22 22 19 18 19 21 22 22 24 28 30 32 32 32 31 30 30 31 31 31 33 35 35 35 35 36 37 35 30 28 31
28 27 27 25 24 24 24 23 23 22 22 20 18 20 19 17 15 15 18 22 23 22 21 21 22 20 19 18 17 16 16 16 16 16 14 14 15 18 20 20 20 24 27 28 26 23 20 18 18 18 20 21 22 23 20 19 20 21 20 18 19 22 22 18 19 24 27 30 32 32 33 33 32 33 33 33 33 34 36 38 36 36 37 37 35 34 35
27 27 26 26 24 24 24 23 22 22 22 20 18 19 20 20 20 19 22 23 22 21 21 20 21 20 18 17 15 14 14 15 19 21 20 17 14 13 16 19 18 19 23 25 24 21 20 22 20 17 17 20 20 20 19 17 18 19 19 17 17 20 19 14 14 19 22 24 27 30 31 32 33 33 32 33 33 33 34 36 37 38 37 35 36 39 38
24 24 24 24 24 24 24 23 22 22 21 20 20 18 19 21 21 19 21 22 22 21 20 19 20 19 15 13 14 15 16 19 22 22 21 19 16 14 16 19 20 20 19 18 20 21 24 28 28 24 22 23 23 23 21 18 17 18 18 17 16 16 16 13 12 15 19 20 22 26 27 26 28 32 33 32 34 34 34 34 35 37 38 36 37 38 35
23 23 22 22 22 22 24 23 22 21 21 20 20 19 18 19 19 18 19 21 20 18 18 18 18 18 16 16 19 19 18 20 21 20 21 22 21 22 22 21 21 19 17 18 23 27 28 28 27 27 27 27 27 28 27 24 22 21 20 18 17 17 16 12 9 11 14 16 18 19 20 20 22 27 31 33 35 35 34 35 34 34 36 37 35 32 29
23 23 22 22 22 22 22 22 22 21 20 20 20 19 18 18 19 18 17 19 18 15 16 16 16 17 19 20 22 22 20 20 21 21 23 24 24 24 23 22 21 18 18 23 25 24 25 25 23 24 26 28 28 29 29 28 27 25 22 20 18 20 19 11 6 7 10 13 16 14 15 19 20 20 22 27 31 32 33 34 34 33 33 34 34 32 28
23 23 22 22 22 21 20 21 21 21 20 20 20 20 19 19 20 18 17 20 19 15 15 17 17 19 20 19 20 22 21 22 22 22 24 24 24 24 23 22 22 20 21 23 21 18 20 21 20 21 23 24 26 29 31 31 30 28 26 22 20 22 23 16 8 8 10 12 15 14 14 17 18 17 16 17 21 26 30 33 34 35 34 34 35 36 33
23 22 22 21 21 21 20 20 20 20 20 21 20 19 19 19 18 16 16 19 19 16 15 17 16 15 15 15 16 18 20 22 23 23 24 24 24 25 25 24 23 22 21 21 18 17 18 18 18 20 21 21 22 27 31 31 31 31 28 25 22 21 22 22 16 10 8 11 15 17 16 15 14 12 11 13 16 21 26 29 31 33 34 34 35 35 34
23 22 21 21 21 20 20 20 20 19 20 21 21 20 20 18 17 16 16 18 20 19 17 17 15 13 15 18 18 16 15 19 22 23 23 24 25 26 27 27 26 22 19 18 16 16 16 17 19 21 22 23 24 24 26 26 28 30 29 27 25 24 23 23 22 16 11 10 13 15 14 12 10 9 10 13 17 22 26 29 30 30 30 32 34 34 34
23 21 21 20 20 20 19 19 19 19 19 20 21 21 20 18 18 17 16 17 20 20 16 12 11 13 16 18 18 16 14 14 18 21 22 23 25 27 27 28 28 24 21 17 14 14 17 19 21 22 22 24 24 22 22 23 22 24 27 27 26 25 25 24 23 22 20 15 12 12 12 8 8 8 12 14 15 19 23 24 27 29 28 29 32 34 35
22 21 20 20 20 19 18 18 18 18 18 18 19 20 20 19 18 17 17 18 21 21 17 13 12 12 12 12 12 12 13 14 15 17 20 22 24 27 28 28 27 26 24 19 14 15 18 19 20 22 21 21 22 21 22 24 22 21 24 27 26 25 25 25 24 24 25 21 17 15 14 10 9 11 14 15 17 17 14 14 18 25 27 30 32 33 34
21 20 19 19 19 17 17 17 17 17 17 18 18 18 18 18 17 17 18 19 21 22 18 14 15 16 14 14 14 13 14 14 13 13 17 19 22 26 27 25 23 23 23 22 18 16 19 19 19 21 20 19 19 18 19 23 23 22 25 26 27 27 27 26 26 26 26 25 22 18 16 15 15 15 16 17 17 12 12 14 17 21 24 28 33 33 32
20 19 18 18 17 16 16 16 16 17 17 17 17 17 17 17 17 17 18 19 21 22 19 16 18 19 16 17 19 17 17 16 13 13 13 13 17 23 22 19 18 17 19 24 22 17 17 20 18 17 19 19 17 15 16 19 19 20 24 27 28 29 28 27 27 26 25 25 24 20 18 18 18 17 18 19 14 11 14 18 21 23 24 25 29 32 34
19 17 16 16 16 16 16 15 16 17 17 16 17 17 16 17 17 17 18 19 21 23 21 18 19 19 18 18 18 17 17 16 13 12 11 10 15 19 15 12 15 16 17 20 21 16 15 19 17 15 17 18 15 11 12 16 16 16 20 25 26 27 27 28 29 27 23 23 22 18 13 13 16 15 16 18 16 18 19 20 21 24 26 26 28 30 34
17 16 15 14 15 15 15 15 15 16 16 16 16 16 16 16 16 16 16 18 20 21 20 18 18 18 18 18 19 19 19 17 13 12 13 13 15 15 12 10 14 17 17 17 16 12 10 12 13 13 13 14 16 14 11 13 17 16 19 21 21 22 25 26 26 27 24 23 21 18 15 15 18 17 15 20 22 24 24 24 24 24 25 27 28 29 32
15 15 14 14 14 15 15 14 14 15 15 15 15 15 14 13 13 13 14 16 19 21 21 20 21 20 18 18 19 21 21 19 17 17 18 17 14 12 12 12 13 16 17 16 14 11 8 7 9 11 10 10 17 18 12 11 15 18 19 20 18 20 24 21 20 24 28 25 21 19 21 23 22 19 17 24 26 24 25 26 25 22 22 24 26 27 28
13 13 14 14 15 14 13 13 13 13 13 13 13 13 12 12 12 13 13 15 18 20 21 22 21 18 16 16 18 21 23 22 20 19 18 17 13 11 12 13 14 15 16 15 13 12 11 10 9 11 10 10 14 17 13 12 13 13 13 14 15 19 24 21 17 23 29 29 26 25 25 27 27 23 22 27 26 21 21 22 21 17 16 19 22 22 19
12 12 13 14 14 13 12 11 12 11 11 11 11 11 11 12 12 13 13 13 16 18 18 16 14 11 10 13 15 19 22 21 19 19 18 16 13 11 12 12 13 15 16 15 13 11 9 8 8 8 10 10 12 12 10 9 9 9 7 7 9 15 20 17 14 18 20 19 22 26 26 29 32 29 27 26 18 13 12 11 11 11 10 13 17 19 20
11 11 13 13 12 11 10 9 10 9 10 10 10 10 11 11 11 12 12 13 15 18 18 14 11 10 12 13 15 17 20 19 19 21 20 15 11 11 12 13 12 14 16 15 11 8 7 7 7 5 7 9 10 12 9 5 5 6 6 5 7 11 13 13 13 16 16 14 17 21 22 25 29 29 23 13 12 16 16 15 15 13 10 9 13 20 25
10 11 11 11 10 9 8 8 8 8 9 9 9 9 10 10 11 11 11 12 15 19 20 15 7 7 11 14 15 17 20 20 19 18 16 13 12 12 13 13 11 12 13 13 11 8 7 7 6 2 3 5 7 9 9 6 4 5 4 4 7 9 9 11 13 15 14 14 16 16 15 17 22 23 18 20 25 25 26 27 25 25 22 17 17 23 29
9 9 8 8 8 7 6 6 6 7 8 8 8 9 9 10 11 11 10 12 15 16 15 10 4 4 10 13 15 17 18 17 15 13 13 14 14 13 12 12 10 10 12 12 13 12 9 7 5 3 2 2 3 5 6 6 5 4 3 6 8 7 6 9 10 8 9 12 14 16 16 15 17 21 25 31 30 27 29 30 28 29 30 28 27 29 29
7 7 7 7 6 5 4 5 5 6 7 6 7 9 9 9 10 10 9 11 13 13 13 11 5 4 7 9 12 14 13 12 12 11 12 14 14 13 12 12 10 10 11 11 11 11 11 9 8 7 5 2 1 3 5 4 5 4 6 10 11 10 9 10 9 9 11 14 17 20 19 17 17 22 26 29 28 26 27 28 29 30 29 29 32 31 27
5 5 6 5 4 3 3 4 4 5 5 6 7 8 8 7 7 7 7 8 9 9 10 9 3 5 6 7 9 11 10 10 11 12 14 14 13 12 12 11 9 10 10 9 8 8 8 10 10 8 7 5 3 1 3 5 5 4 6 10 13 13 13 13 13 14 16 18 20 23 23 22 22 24 23 18 16 22 23 22 24 25 24 25 29 28 22
5 5 5 4 3 3 3 4 4 4 5 6 6 5 6 5 4 4 6 7 5 5 6 6 2 5 6 7 9 10 9 9 11 13 14 13 12 11 10 9 9 10 9 7 6 5 3 6 8 6 6 5 3 2 3 4 4 2 3 7 11 13 14 15 15 15 16 19 21 23 25 26 27 29 31 27 19 16 16 13 13 16 17 19 23 25 22
5 4 4 3 4 4 4 4 5 5 5 5 4 3 4 3 2 4 6 6 5 4 7 8 4 6 7 7 8 8 7 10 13 14 14 13 12 11 10 8 7 7 6 5 5 4 2 4 5 3 3 4 2 1 3 3 3 2 1 3 6 9 11 14 15 16 17 18 19 23 26 28 29 32 33 32 27 22 18 15 12 14 14 14 15 17 18
4 4 4 5 6 5 5 5 5 5 5 3 3 3 4 2 3 5 5 5 7 7 9 9 4 6 8 7 8 8 10 13 16 14 12 12 12 10 8 7 6 6 6 6 6 6 5 5 3 2 3 3 1 1 2 3 3 3 2 1 2 5 8 12 15 16 17 18 21 27 30 29 29 32 32 30 29 28 26 23 19 17 16 14 13 12 14
4 4 6 7 7 6 5 4 4 4 3 1 1 2 3 2 3 5 5 6 7 8 9 7 3 5 8 8 8 10 12 13 14 13 12 12 11 9 7 7 7 8 8 7 5 6 7 6 4 3 4 4 2 1 3 3 3 4 4 2 2 3 5 9 12 14 16 18 22 26 28 28 29 30 29 27 27 27 26 25 24 23 21 21 21 20 20
5 5 7 7 6 5 4 4 3 3 2 1 1 1 1 1 2 5 7 8 8 8 8 7 5 5 10 10 8 9 12 11 11 11 12 12 12 9 8 10 10 8 7 7 6 5 6 6 5 4 4 4 4 5 6 5 4 6 5 2 1 5 9 11 13 15 16 17 19 20 23 26 28 27 24 23 22 22 23 23 22 22 23 25 26 24 21
5 5 6 6 6 5 5 4 4 4 3 3 3 3 3 2 2 4 7 9 8 8 8 7 5 6 11 12 8 8 11 11 10 10 10 10 11 10 10 12 11 7 6 8 7 5 6 8 8 7 5 6 7 9 9 6 5 7 8 5 6 11 16 16 16 18 19 18 20 21 22 23 24 23 22 21 18 17 18 18 18 18 19 19 19 17 15
7 7 7 7 6 6 5 5 5 5 4 4 4 4 4 5 4 4 6 7 7 6 6 6 6 8 12 10 8 9 12 11 11 11 10 10 11 11 10 11 9 7 7 8 6 5 8 8 7 6 6 8 10 13 12 9 7 9 11 10 9 12 16 16 16 17 18 18 20 20 19 18 17 17 18 18 16 15 15 15 15 15 16 15 14 14 13
10 9 8 8 7 7 6 5 5 5 5 5 5 4 5 5 5 4 4 5 5 7 8 8 7 10 11 10 10 12 12 11 11 11 9 9 11 11 10 9 8 7 9 8 6 8 11 10 8 7 7 9 11 13 13 12 11 11 12 11 10 11 13 12 12 11 12 14 17 18 18 17 17 17 17 17 17 16 16 15 14 14 14 13 10 8 7
11 10 9 9 8 8 7 5 5 6 6 6 6 6 6 6 5 5 5 5 6 8 9 9 9 10 10 9 9 11 12 12 11 10 9 10 11 11 9 8 8 9 10 9 9 11 11 9 7 7 8 10 12 13 13 14 15 16 16 16 15 15 15 16 18 17 15 15 16 17 16 15 14 13 12 12 12 12 12 11 10 9 9 7 4 3 5
12 11 11 10 10 9 7 6 6 7 8 8 8 7 7 7 6 5 5 6 8 9 8 8 11 12 11 10 9 10 13 13 10 8 10 11 11 10 9 8 9 10 9 8 10 12 11 10 9 9 10 12 12 13 15 16 17 17 17 16 17 17 17 17 18 19 18 18 18 17 16 15 13 11 10 8 7 7 7 4 1 2 3 3 4 7 9
12 12 12 12 11 10 9 9 10 10 10 10 9 7 7 7 7 6 7 9 9 9 8 8 10 10 10 10 9 10 12 12 10 10 11 10 9 9 9 8 9 9 7 8 11 11 10 10 11 12 12 12 13 16 19 20 17 15 14 14 14 14 15 15 15 16 16 16 15 14 14 13 11 10 8 6 6 6 6 4 5 6 7 7 7 8 10
13 12 12 11 11 10 10 10 10 10 9 9 9 8 7 6 6 7 8 8 6 5 6 7 7 6 7 9 9 10 11 10 11 14 13 10 9 9 8 8 10 8 5 9 13 12 10 11 13 14 14 14 17 20 21 19 16 14 13 13 12 12 13 14 14 14 14 13 12 11 10 10 9 7 5 4 3 3 3 5 7 8 8 8 8 9 11
12 11 11 10 9 10 10 9 9 9 8 8 7 7 6 6 6 7 7 6 4 3 4 6 7 5 7 10 11 12 12 11 13 13 9 7 9 9 7 8 9 5 5 11 14 13 11 13 15 16 16 16 18 20 20 18 16 14 12 12 12 11 11 12 11 11 10 9 8 7 6 5 5 5 5 4 3 2 3 4 6 7 8 8 8 9 10
11 10 9 9 9 9 9 9 9 8 8 7 6 5 5 5 5 5 5 4 4 4 3 4 5 4 8 11 12 14 13 12 13 11 6 6 10 10 7 6 5 4 7 12 14 12 12 14 17 17 16 16 18 20 20 19 17 14 13 13 12 10 9 8 7 7 6 5 5 5 5 5 5 5 5 5 4 3 3 3 3 4 5 5 6 7 7
11 10 9 9 9 9 9 9 10 9 9 8 6 5 4 4 4 4 3 3 3 3 2 3 1 7 12 13 13 13 11 9 11 11 7 6 8 8 5 4 5 6 7 11 15 15 14 15 17 17 16 15 17 19 20 19 18 16 15 14 13 11 9 8 6 6 5 5 6 6 6 6 6 6 6 5 4 4 3 3 2 2 2 2 3 3 4
11 12 11 11 11 10 9 9 9 9 9 8 6 4 4 4 3 2 2 2 2 1 1 0 5 11 13 13 11 11 10 9 8 9 8 6 6 5 4 5 7 9 9 10 16 18 17 16 17 17 15 14 17 19 20 19 18 16 15 14 12 11 9 8 7 7 7 7 7 7 7 7 7 7 7 7 6 4 3 3 3 3 2 2 2 2 2
9 11 13 16 17 17 16 15 14 11 9 9 8 6 4 4 3 2 4 7 7 4 3 7 11 12 12 12 10 10 10 9 7 7 8 6 5 6 8 8 7 8 9 12 16 17 16 16 17 16 15 17 19 20 19 19 17 15 13 12 11 10 9 8 8 8 8 8 8 7 7 7 6 7 7 7 7 7 5 4 3 2 2 1 1 1 2
15 16 19 21 22 23 23 24 22 17 14 14 13 10 7 7 7 5 4 7 11 13 12 12 14 13 11 11 10 8 8 8 6 5 6 6 4 6 9 9 8 8 12 16 19 18 15 14 15 16 18 20 21 20 19 19 17 15 13 11 10 9 9 9 9 8 8 8 8 7 6 5 5 5 5 6 6 7 6 6 5 4 3 2 2 1 1
23 25 25 25 25 26 26 26 26 25 23 21 19 17 15 15 16 14 9 8 13 16 16 15 15 13 11 9 8 7 7 7 5 4 5 5 5 5 7 8 9 12 15 18 19 19 16 14 15 18 20 20 20 20 20 19 16 14 13 11 10 10 9 9 10 9 8 8 8 7 6 5 4 4 4 4 4 5 5 5 5 5 5 5 5 4 3
25 26 27 27 26 27 27 27 27 29 29 25 21 20 20 19 18 16 15 14 14 14 12 12 12 11 8 7 7 7 7 6 6 6 8 8 8 9 10 11 13 15 15 15 17 18 18 17 17 18 19 18 18 19 18 17 15 14 13 12 11 10 9 9 9 9 8 8 8 8 7 7 6 5 4 4 4 3 3 3 3 4 4 5 5 4 4
24 25 26 26 25 25 27 28 28 29 29 26 23 21 21 19 16 13 12 12 12 11 10 10 10 8 6 7 10 11 10 9 10 12 14 14 15 16 16 16 16 16 15 16 17 19 20 19 18 18 18 18 17 16 16 14 13 12 12 11 11 10 9 8 7 7 8 8 8 8 9 9 8 6 5 4 3 2 1 2 2 2 2 2 2 2 3
24 23 23 22 21 22 23 25 25 25 26 25 24 21 20 18 16 14 13 11 10 10 9 9 8 7 9 11 14 15 15 16 17 18 18 18 18 19 19 18 15 14 15 17 19 19 18 17 16 16 16 16 15 14 14 13 12 11 11 10 10 10 9 8 7 7 7 8 8 8 9 10 10 8 6 4 2 1 2 2 2 2 2 2 2 2 2
23 22 21 20 19 20 20 20 20 21 22 22 22 21 20 20 18 15 12 11 11 10 9 7 6 8 13 17 19 19 20 21 21 22 22 21 19 19 19 17 15 14 14 15 16 17 16 15 14 14 14 14 13 12 12 11 9 9 9 9 9 9 8 8 8 7 7 7 7 8 9 10 9 7 6 5 4 3 3 3 3 3 3 3 3 3 3
Wind_Direction
298 298 298 298 298 299 298 298 297 296 295 294 291 289 286 282 277 274 274 271 265 258 253 249 246 246 245 243 240 239 241 243 243 240 236 236 236 234 233 233 233 234 234 232 230 229 232 233 230 230 232 225 217 214 206 202 202 206 212 212 209 212 214 217 224 227 225 223 220 218 216 217 222 223 219 218 219 220 225 227 226 228 229 230 235 242 238
298 298 299 299 300 300 300 299 298 298 297 296 294 291 288 285 282 279 277 274 268 259 254 254 251 249 251 250 246 242 242 242 240 236 232 230 231 231 231 232 233 232 232 232 230 229 232 237 236 233 236 236 228 225 220 207 199 200 207 205 201 205 208 210 219 225 223 223 217 211 211 215 221 223 220 220 221 222 226 229 230 233 232 229 231 237 232
299 300 299 299 299 299 298 297 296 296 295 293 293 291 288 287 286 283 278 274 267 253 244 251 257 251 251 254 249 246 244 242 238 233 229 227 226 230 231 230 230 230 230 232 231 229 231 236 239 236 237 240 237 229 220 211 208 209 205 196 199 207 208 206 213 217 212 215 212 207 209 212 219 224 222 221 222 222 224 227 229 232 233 232 234 237 234
301 300 299 298 297 295 294 293 292 291 290 289 288 287 288 286 282 281 280 268 260 255 248 248 255 255 259 265 260 251 249 248 245 239 232 228 225 227 230 228 227 227 226 227 230 230 229 231 234 233 230 231 232 229 221 213 213 214 205 194 199 216 217 210 216 223 224 222 219 215 214 215 218 222 223 223 223 224 225 227 229 230 231 233 236 239 238
301 300 299 298 297 295 293 291 289 287 285 285 284 284 284 283 278 276 275 260 247 253 257 250 250 253 261 271 266 254 253 252 247 240 235 232 229 228 230 225 222 222 221 223 228 227 227 228 229 229 228 223 223 227 223 216 213 210 205 201 207 220 224 219 220 228 232 232 230 225 221 222 222 222 222 223 223 224 225 228 231 232 233 235 235 234 233
302 301 301 300 297 297 296 293 290 287 284 280 280 281 278 274 270 264 262 258 238 226 231 232 238 246 257 266 263 258 259 255 249 245 238 232 227 227 229 226 223 223 221 223 228 227 226 228 228 229 229 225 225 229 226 220 216 211 207 213 218 222 227 226 225 231 233 233 235 233 229 228 227 226 224 224 223 223 225 229 232 233 235 239 236 230 229
302 300 300 299 297 295 296 294 292 290 289 284 278 277 275 270 269 263 259 258 251 243 239 238 245 251 256 262 261 258 257 254 253 251 240 232 227 224 226 227 227 228 225 224 228 226 225 227 226 227 227 224 225 229 227 222 217 214 214 220 222 225 230 231 231 235 235 233 234 235 235 234 231 230 230 229 228 227 228 231 233 234 237 240 240 238 235
300 299 296 295 294 292 291 290 290 290 293 292 282 276 274 269 266 263 261 262 263 262 257 254 258 259 257 258 260 258 257 257 253 243 235 232 222 217 225 229 230 230 225 225 228 226 225 228 226 221 221 221 224 228 228 222 214 214 218 220 221 227 229 229 233 238 237 233 232 234 236 236 234 233 232 232 232 230 229 230 231 233 236 239 240 242 241
300 299 295 292 291 289 287 285 285 285 287 288 282 277 273 269 268 268 267 267 267 266 264 260 261 263 261 260 259 252 248 249 247 239 232 228 216 214 230 233 226 217 213 218 227 227 228 231 223 207 203 208 215 221 223 219 214 214 214 212 216 223 224 222 232 240 237 229 229 231 233 236 237 235 232 231 232 232 231 231 230 231 234 236 237 239 240
301 300 297 294 291 287 284 280 279 279 279 279 280 278 274 273 274 272 270 269 266 264 266 263 259 258 258 258 252 244 239 242 248 246 237 228 225 231 237 228 218 211 209 215 221 219 223 227 224 216 211 210 210 210 210 211 215 216 212 209 210 211 212 215 227 241 241 231 228 230 230 232 234 232 230 229 230 232 234 234 232 231 232 234 236 238 241
300 299 298 296 293 288 282 278 275 272 272 273 275 277 277 276 277 275 271 269 267 267 268 264 260 256 251 249 251 251 246 244 248 248 237 227 226 233 235 227 221 220 223 225 223 222 226 230 230 229 228 225 221 217 216 217 218 216 211 212 211 201 194 200 221 240 242 233 228 231 232 230 230 229 229 229 229 230 233 235 235 233 232 234 237 240 241
298 297 297 296 295 290 283 278 273 269 269 269 267 269 273 277 279 279 274 268 265 265 264 262 261 258 251 248 252 255 253 248 246 244 240 232 228 232 238 234 229 229 231 229 227 230 233 233 233 234 233 231 227 224 225 226 222 217 214 215 215 209 202 198 212 238 241 227 217 222 231 230 230 232 231 230 231 232 234 237 238 236 235 235 237 238 239
296 296 296 295 295 293 287 281 274 269 268 267 265 265 268 272 276 277 274 271 266 262 263 263 261 261 259 255 255 256 254 250 247 244 242 238 232 230 234 237 234 232 233 232 230 231 232 229 230 233 233 232 231 229 230 230 225 221 219 220 220 219 219 219 220 231 238 229 221 227 237 234 234 239 238 233 232 232 235 238 238 236 236 237 237 237 238
295 294 294 294 295 293 289 283 276 269 266 265 265 265 263 265 270 273 273 272 268 263 263 264 264 268 268 260 255 256 253 248 246 245 241 239 236 233 234 237 238 235 235 238 236 232 229 225 224 226 223 221 225 228 229 230 228 223 220 221 221 220 221 224 225 222 229 241 238 236 240 244 242 238 235 233 227 224 228 237 239 236 235 236 237 237 235
292 291 292 293 294 293 290 285 278 270 264 263 264 264 262 261 264 267 269 271 272 272 267 265 267 268 261 253 248 253 256 247 244 246 242 236 237 239 238 236 235 235 239 243 240 232 228 225 222 218 212 209 213 218 220 223 227 223 219 219 221 221 221 223 224 217 213 242 250 238 236 240 228 222 240 246 236 225 224 231 237 235 234 234 234 235 234
291 290 289 291 292 292 289 285 279 272 265 263 262 261 260 259 258 262 266 268 271 271 264 260 269 269 263 259 254 255 262 254 245 245 241 234 234 238 239 238 235 234 236 239 238 230 225 224 222 217 212 208 209 210 208 207 211 213 213 213 216 220 222 225 228 223 217 224 242 244 242 227 200 233 274 282 269 249 235 234 240 238 235 234 232 233 234
290 289 288 289 292 291 287 283 279 273 266 263 262 259 256 256 256 259 261 262 265 267 261 257 265 268 269 271 262 251 253 252 247 242 235 229 230 234 238 240 241 237 232 231 237 233 225 223 223 222 218 212 208 207 203 199 195 192 196 201 205 208 211 213 219 221 216 217 228 241 249 247 244 265 283 295 295 275 244 234 242 238 235 236 234 233 232
289 288 286 288 291 290 285 281 277 272 266 263 261 259 255 255 256 256 256 257 261 268 273 270 262 257 258 263 258 242 236 240 244 243 235 225 226 233 237 242 245 242 232 231 241 242 230 223 222 222 220 213 210 210 205 200 195 187 185 191 199 203 205 207 213 217 215 217 225 233 240 250 260 271 282 292 296 277 235 230 240 235 232 235 234 231 230
288 285 283 287 292 290 283 280 277 273 268 263 260 258 255 255 255 255 256 258 261 269 278 278 267 259 254 256 257 249 243 243 243 243 242 229 223 229 235 241 241 234 225 228 238 243 231 223 220 218 218 215 210 212 212 204 196 191 190 192 197 201 203 205 211 216 217 219 227 232 233 241 251 264 284 290 278 246 233 237 240 239 237 237 236 230 224
286 282 280 286 293 291 284 279 278 274 268 264 261 259 256 256 256 255 256 259 263 271 278 279 272 264 256 253 255 252 248 247 246 246 249 239 225 222 222 227 226 216 212 222 232 236 226 220 217 212 214 216 210 207 212 208 200 193 193 197 201 203 205 208 208 209 213 219 224 229 229 232 238 253 286 292 265 244 245 244 245 250 249 247 247 240 229
284 279 279 285 294 294 286 279 277 272 267 265 262 259 259 259 259 257 257 259 264 270 277 277 269 263 257 252 250 247 244 241 241 244 242 233 225 215 204 203 209 208 209 218 226 230 225 220 214 205 208 219 220 215 210 208 207 202 195 198 204 204 207 213 209 204 209 216 218 220 220 221 228 244 282 297 279 260 253 251 254 262 261 255 255 254 243
281 276 278 288 297 297 288 280 275 269 265 263 261 261 262 261 260 259 260 264 268 272 274 274 268 263 258 250 243 243 245 241 234 233 232 228 224 217 204 198 199 201 207 214 219 220 221 218 207 197 197 213 219 218 218 213 210 207 200 199 201 203 207 211 208 208 215 221 224 229 231 232 236 246 278 300 292 269 253 251 255 263 266 262 260 257 248
281 276 280 290 297 297 289 280 275 268 262 261 261 262 262 260 261 263 263 266 272 276 279 280 278 270 257 245 240 238 239 237 231 229 230 228 223 209 192 191 197 197 200 209 211 205 204 205 196 193 198 204 207 212 221 221 208 197 195 197 198 204 209 209 211 218 221 227 236 239 240 243 243 246 271 291 287 260 242 245 251 255 259 259 253 241 225
285 281 284 291 294 293 288 280 273 266 262 261 262 262 260 258 259 264 267 272 280 285 287 284 279 271 249 239 239 236 235 235 230 225 226 223 211 188 177 188 201 198 198 210 211 194 191 194 180 182 197 200 201 204 210 220 209 183 171 184 194 204 206 203 214 223 219 227 240 241 243 246 240 241 262 278 267 229 215 224 230 231 235 237 226 205 184
292 289 291 292 290 288 285 278 268 262 262 263 262 261 260 259 261 265 271 279 285 289 289 280 267 260 249 237 235 235 235 234 225 219 220 214 189 169 174 184 192 193 199 211 210 184 172 172 159 167 194 191 196 203 203 215 214 178 159 168 192 201 202 201 212 218 214 224 240 240 243 244 238 238 248 238 173 153 145 140 144 152 163 182 180 169 165
302 300 300 298 293 288 284 275 263 256 258 261 261 263 264 265 269 271 275 285 289 287 285 280 269 254 244 232 227 231 232 229 223 220 217 201 175 169 175 175 180 193 200 207 208 195 182 174 165 190 229 185 178 196 205 216 211 172 158 196 195 191 201 209 213 214 215 224 230 226 225 232 235 230 204 154 136 134 134 132 134 136 138 144 149 150 150
314 314 316 313 306 297 283 269 257 253 257 260 263 270 275 275 278 281 283 288 290 286 283 284 276 248 245 233 226 230 232 229 225 217 207 193 181 177 175 170 179 200 202 199 199 192 181 177 175 170 189 184 150 156 179 205 205 179 191 219 206 194 202 207 202 198 204 209 210 206 201 205 217 209 174 143 131 131 134 136 138 137 135 140 147 147 145
324 329 332 326 314 300 276 260 255 256 263 270 276 284 286 282 283 287 283 277 275 275 284 294 283 228 236 233 228 231 232 226 219 205 191 187 183 183 186 184 190 211 213 201 194 188 178 171 164 149 139 133 107 128 143 160 175 189 218 224 219 220 219 207 196 196 203 203 201 202 200 193 192 188 168 144 133 136 140 140 141 139 136 141 146 146 142
330 325 329 327 314 292 266 258 264 267 274 286 292 294 291 286 290 297 290 281 273 272 290 308 298 180 195 213 218 223 221 212 203 189 179 181 182 183 189 192 197 216 221 207 199 203 186 163 154 149 138 117 78 89 137 135 142 186 229 231 227 229 229 224 219 216 215 213 209 206 206 204 200 195 191 181 157 146 146 146 147 147 145 145 149 149 147
335 322 322 322 300 276 268 274 285 298 309 307 303 297 285 277 292 315 314 313 306 292 313 343 36 167 188 200 203 209 211 198 183 175 171 172 173 174 180 190 203 218 228 222 221 239 204 140 137 138 138 135 136 161 156 143 145 175 235 239 235 231 228 228 228 224 221 224 224 216 210 210 212 213 220 230 223 185 167 166 166 165 163 157 156 159 161
347 342 334 325 306 286 283 294 302 314 317 304 292 284 275 277 348 351 342 352 359 349 351 2 41 139 157 179 192 194 187 169 161 162 164 163 162 167 176 188 201 208 218 225 225 227 191 138 127 110 126 157 171 130 120 137 168 209 282 278 252 234 223 222 225 224 221 221 222 216 208 208 213 215 218 223 226 227 236 245 225 203 198 190 179 176 180
359 0 347 340 336 322 308 308 314 321 315 291 269 259 254 285 4 355 343 357 3 0 358 358 26 116 131 162 182 165 147 148 152 156 159 162 164 169 178 186 188 183 186 202 213 205 179 153 139 133 150 160 152 49 119 152 182 203 205 234 260 249 230 221 222 224 223 217 212 210 206 204 207 210 210 211 216 226 241 249 242 230 225 219 217 220 219
344 348 343 343 344 337 325 323 331 340 339 304 288 267 236 256 4 16 19 11 2 1 4 2 23 108 125 147 162 154 148 154 161 161 160 165 171 173 175 176 168 162 169 184 197 189 167 153 161 182 168 153 135 97 116 136 170 179 166 167 267 260 223 216 219 221 220 216 212 209 204 199 199 203 206 208 212 216 223 231 237 242 246 246 251 257 254
335 338 345 353 1 5 4 4 7 12 23 40 8 6 188 170 36 26 19 12 7 8 12 17 37 105 129 134 142 158 164 163 164 165 163 166 172 174 174 170 161 159 172 175 163 152 152 156 166 168 152 150 144 114 100 108 144 157 150 145 180 159 160 180 197 197 196 201 203 200 194 191 192 194 194 196 202 208 213 219 226 234 243 248 252 255 253
4 6 12 22 31 32 30 31 36 40 50 67 77 84 91 80 48 6 358 3 9 6 6 14 38 106 134 131 129 158 167 156 151 160 165 169 174 176 173 168 164 168 178 165 144 143 169 173 163 153 156 161 142 117 108 111 130 143 145 141 147 154 154 156 159 158 160 168 175 174 172 175 177 175 170 170 175 184 192 200 205 210 216 219 218 216 212
38 36 36 36 37 39 40 40 44 55 69 76 77 75 63 54 39 354 347 5 16 14 11 21 54 114 134 124 110 136 151 147 151 164 167 167 170 168 165 168 172 168 157 146 138 158 174 166 150 147 160 157 132 113 108 108 120 144 152 145 143 156 159 150 143 143 145 148 151 152 151 154 157 153 149 147 148 155 168 179 186 191 195 194 189 186 185
40 37 36 39 43 46 45 41 45 56 61 63 62 48 36 37 29 2 358 20 34 38 39 42 69 110 122 109 106 127 139 141 151 161 159 155 159 158 156 167 176 159 140 136 148 165 164 158 155 158 158 149 135 121 110 104 109 130 142 138 138 157 159 138 114 115 130 137 137 134 130 132 140 146 146 143 140 143 152 161 165 173 181 182 179 186 198
40 39 40 44 46 43 36 33 38 43 41 45 51 45 38 41 38 31 35 50 57 58 59 57 65 85 98 102 114 135 144 141 144 155 158 154 155 155 154 162 168 153 141 143 160 162 155 150 157 158 142 134 134 131 124 116 112 111 112 110 111 122 126 110 91 84 88 97 104 102 94 91 102 118 127 129 127 124 127 138 151 166 173 168 170 235 259
49 50 51 53 52 49 44 44 52 55 52 53 59 59 57 62 65 57 54 59 61 62 59 45 43 60 87 106 118 134 144 142 138 146 156 156 154 154 157 164 161 149 143 153 163 157 142 133 136 133 124 125 130 133 134 133 125 112 104 98 94 94 94 88 77 69 66 65 65 62 53 48 51 58 59 51 43 44 51 59 53 259 253 263 280 277 273
55 56 57 59 60 62 62 64 70 71 65 60 65 73 73 72 76 80 75 66 57 53 49 32 27 49 88 111 120 134 145 149 142 138 144 154 155 149 152 163 160 150 149 163 164 154 141 136 133 126 123 131 135 134 135 135 130 119 108 99 91 85 81 76 70 65 61 57 51 43 34 28 28 32 31 19 7 3 355 327 297 285 278 274 272 268 267
54 53 54 55 58 61 64 66 71 73 68 64 69 76 79 78 75 73 71 64 48 38 47 39 25 43 90 111 128 143 149 154 149 140 137 146 151 143 145 157 155 148 159 172 165 156 149 144 137 132 137 143 142 138 137 135 132 125 116 105 96 89 82 76 70 61 56 52 45 35 23 15 13 14 10 2 0 349 309 282 275 273 272 271 267 261 261
46 47 47 49 52 56 58 60 63 66 67 66 65 65 70 76 72 67 72 73 61 55 58 41 28 54 103 115 128 139 143 148 149 140 127 132 145 145 150 159 155 153 176 175 165 156 147 142 139 142 148 150 148 145 144 139 132 126 118 108 100 90 81 75 66 56 48 43 37 32 22 10 8 8 4 359 356 334 292 276 272 271 272 272 268 264 265
33 36 41 45 49 52 52 53 56 56 55 53 52 52 58 66 65 66 72 70 63 68 56 22 29 98 125 122 123 129 136 147 152 144 124 131 145 142 139 149 159 179 179 166 157 152 145 141 144 152 156 155 155 154 149 141 136 132 125 117 109 98 89 82 69 57 52 50 50 53 49 35 25 19 13 9 8 0 342 320 299 286 281 277 273 273 275
26 31 36 41 46 48 49 51 53 52 49 47 47 49 56 64 72 74 76 78 84 88 40 347 67 137 132 122 118 121 125 138 152 150 142 145 146 138 131 142 157 168 164 144 136 137 136 136 145 157 161 157 156 153 144 135 131 128 121 115 108 99 93 88 81 76 76 72 68 65 57 45 38 31 23 19 17 12 8 4 359 351 334 309 293 286 283
38 43 45 47 49 49 48 47 45 42 41 42 45 56 66 68 68 72 81 102 122 117 350 117 141 134 123 114 116 123 121 123 141 151 150 147 145 143 141 138 145 159 158 133 125 131 134 133 141 152 157 154 152 148 139 129 123 118 112 106 100 94 91 87 83 83 79 70 62 56 49 44 41 36 33 33 30 24 20 24 26 27 18 7 357 340 316
61 65 62 59 56 53 50 47 45 48 58 65 67 71 76 62 42 58 106 104 90 75 114 137 132 125 118 114 115 118 119 120 132 148 149 147 153 155 146 132 130 145 142 121 115 124 136 141 143 146 147 147 147 142 132 120 112 106 102 97 91 89 88 84 80 76 69 62 60 55 50 48 46 42 40 42 40 39 41 41 38 37 36 28 18 3 344
67 73 70 64 59 54 52 51 50 55 67 72 62 54 62 71 65 69 113 111 86 75 83 100 104 105 113 117 115 115 123 127 130 141 144 138 130 129 126 120 120 128 123 114 111 115 126 140 147 145 141 142 141 132 119 109 103 99 97 94 91 90 87 82 78 75 70 65 62 56 50 51 54 54 54 51 46 48 52 53 53 55 56 52 52 44 16
59 63 62 60 56 54 55 55 53 53 59 62 56 50 56 66 66 58 48 52 64 67 69 74 80 85 95 106 111 125 140 139 128 134 146 143 128 109 100 99 106 115 115 115 118 124 131 141 145 140 135 133 128 118 109 105 104 104 103 100 96 93 87 81 79 76 71 65 59 52 47 45 43 48 57 59 55 53 54 55 58 60 58 56 57 56 50
56 57 57 57 55 53 54 55 52 50 52 54 52 49 50 53 53 50 46 49 57 63 64 65 69 73 78 89 108 130 148 148 132 120 115 110 105 100 96 95 102 110 114 118 126 134 137 137 134 132 129 124 117 109 105 105 106 107 104 99 94 91 85 79 75 70 64 59 53 46 40 37 33 33 40 49 55 60 61 58 58 56 51 51 52 49 44
53 53 53 51 48 47 49 50 49 47 48 47 45 46 49 50 49 51 55 58 61 63 62 62 61 55 54 82 108 121 127 123 112 103 97 95 97 99 98 98 102 109 116 121 126 130 132 132 132 132 128 121 114 110 110 110 109 106 101 96 93 88 81 73 67 59 51 48 46 41 34 30 30 35 42 46 51 55 46 37 42 43 34 30 29 25 18
48 48 47 44 41 42 45 46 45 46 47 46 44 46 52 56 57 59 61 64 67 67 62 57 50 43 48 67 87 99 103 102 101 98 95 93 93 92 91 92 94 97 103 113 121 126 129 131 132 129 124 119 117 116 116 115 113 108 101 95 89 82 73 65 59 50 40 35 35 29 21 20 26 36 41 38 28 25 23 14 2 356 345 326 316 319 317
47 48 49 48 46 46 48 49 51 53 52 50 47 48 51 54 55 55 56 61 70 72 64 55 60 69 66 65 71 80 86 89 91 92 90 89 89 91 94 97 95 89 92 104 114 119 122 125 127 124 121 120 119 118 118 117 115 108 99 91 84 77 68 60 53 46 37 31 26 17 13 17 23 24 20 16 16 18 16 10 5 0 350 335 327 323 311
Height
3058 3056 3055 3054 3052 3051 3050 3048 3047 3046 3045 3045 3045 3046 3045 3044 3044 3045 3044 3043 3044 3045 3043 3044 3044 3042 3042 3043 3045 3045 3045 3045 3047 3049 3050 3052 3053 3054 3055 3056 3058 3060 3061 3063 3063 3064 3064 3064 3066 3067 3068 3069 3070 3072 3072 3074 3076 3077 3078 3080 3083 3085 3085 3086 3086 3086 3087 3088 3090 3092 3093 3095 3096 3095 3097 3099 3100 3101 3101 3102 3105 3105 3102 3106 3106 3100 3103
3053 3052 3050 3049 3048 3047 3046 3045 3043 3042 3041 3040 3040 3041 3041 3040 3040 3041 3041 3040 3040 3040 3040 3041 3041 3040 3040 3040 3040 3040 3040 3041 3042 3044 3045 3047 3049 3049 3050 3052 3054 3055 3058 3059 3059 3060 3060 3060 3061 3063 3065 3066 3067 3069 3070 3071 3073 3075 3076 3077 3078 3079 3080 3082 3082 3083 3084 3085 3085 3086 3089 3090 3089 3090 3092 3093 3095 3098 3099 3101 3103 3098 3096 3101 3099 3094 3100
3048 3047 3046 3044 3043 3042 3041 3040 3039 3039 3038 3037 3036 3036 3037 3037 3036 3037 3037 3036 3036 3036 3037 3038 3038 3037 3038 3037 3036 3036 3036 3036 3037 3039 3041 3042 3045 3046 3047 3048 3050 3052 3054 3055 3055 3056 3057 3057 3058 3060 3061 3063 3064 3066 3067 3068 3070 3072 3073 3074 3074 3075 3076 3077 3076 3075 3076 3076 3076 3078 3082 3084 3085 3086 3087 3089 3091 3093 3094 3096 3096 3091 3093 3097 3093 3091 3099
3043 3042 3041 3040 3039 3038 3037 3036 3035 3035 3034 3034 3033 3032 3033 3033 3033 3033 3034 3033 3032 3032 3033 3034 3034 3034 3034 3032 3032 3033 3033 3033 3034 3034 3035 3037 3040 3042 3043 3045 3047 3048 3049 3050 3051 3052 3053 3054 3056 3057 3058 3060 3062 3063 3064 3065 3067 3068 3069 3069 3071 3072 3072 3072 3072 3070 3070 3071 3073 3076 3079 3080 3081 3082 3084 3085 3087 3089 3090 3090 3087 3087 3092 3093 3090 3092 3098
3039 3037 3036 3035 3034 3033 3032 3032 3031 3031 3031 3030 3029 3029 3029 3030 3030 3031 3031 3030 3029 3030 3031 3032 3031 3031 3030 3029 3028 3029 3030 3031 3031 3031 3031 3033 3035 3037 3039 3041 3042 3043 3045 3046 3047 3048 3050 3051 3052 3053 3056 3058 3059 3060 3060 3061 3063 3064 3065 3066 3067 3069 3068 3068 3069 3069 3069 3070 3072 3075 3076 3076 3077 3079 3080 3082 3084 3085 3086 3083 3083 3087 3088 3085 3088 3094 3095
3034 3033 3032 3031 3030 3029 3028 3027 3027 3026 3026 3026 3026 3025 3026 3026 3026 3027 3027 3026 3026 3027 3027 3027 3026 3026 3026 3025 3025 3026 3027 3028 3029 3029 3029 3030 3032 3034 3034 3036 3037 3039 3042 3043 3043 3045 3046 3047 3048 3050 3052 3055 3057 3057 3057 3059 3060 3061 3063 3064 3064 3065 3064 3065 3067 3067 3067 3069 3070 3071 3072 3073 3074 3075 3076 3078 3080 3081 3081 3080 3082 3085 3083 3081 3087 3091 3090
3030 3029 3028 3027 3026 3025 3025 3024 3023 3023 3023 3023 3022 3022 3022 3023 3023 3023 3022 3021 3021 3022 3022 3022 3022 3022 3023 3022 3022 3023 3024 3025 3026 3026 3026 3027 3028 3030 3030 3032 3034 3036 3038 3040 3040 3041 3042 3042 3044 3046 3049 3051 3053 3054 3055 3056 3058 3059 3060 3061 3061 3061 3061 3063 3064 3063 3064 3065 3066 3067 3068 3069 3070 3071 3072 3074 3075 3076 3077 3078 3079 3081 3080 3081 3085 3086 3085
3026 3025 3025 3024 3023 3022 3022 3021 3020 3020 3020 3020 3020 3019 3018 3019 3019 3019 3018 3017 3017 3018 3018 3019 3019 3019 3019 3019 3020 3021 3022 3023 3023 3022 3022 3023 3024 3027 3029 3031 3031 3032 3034 3035 3036 3037 3039 3039 3041 3043 3045 3047 3049 3051 3052 3053 3055 3056 3057 3058 3058 3058 3058 3060 3061 3060 3059 3060 3062 3063 3064 3064 3064 3066 3067 3069 3070 3071 3072 3073 3075 3077 3076 3079 3082 3081 3081
3022 3022 3021 3020 3019 3018 3018 3018 3017 3017 3017 3017 3017 3016 3016 3015 3014 3014 3014 3013 3014 3015 3015 3015 3015 3016 3016 3017 3017 3018 3018 3018 3017 3017 3018 3020 3021 3023 3025 3025 3025 3026 3028 3030 3032 3035 3035 3035 3036 3038 3039 3042 3045 3046 3048 3050 3052 3052 3053 3054 3054 3055 3056 3057 3058 3056 3054 3055 3057 3058 3060 3061 3060 3060 3062 3064 3065 3066 3067 3068 3070 3071 3072 3075 3076 3074 3075
3019 3018 3017 3016 3015 3014 3014 3014 3014 3014 3014 3014 3013 3013 3013 3011 3011 3011 3010 3010 3010 3011 3012 3012 3012 3013 3014 3014 3013 3014 3014 3014 3014 3014 3016 3017 3018 3017 3017 3018 3020 3022 3025 3027 3028 3028 3028 3028 3031 3034 3035 3038 3040 3041 3043 3045 3047 3049 3050 3051 3052 3052 3053 3055 3055 3053 3051 3053 3054 3055 3057 3056 3053 3054 3057 3059 3060 3062 3062 3063 3064 3066 3068 3069 3068 3068 3071
3016 3015 3014 3013 3012 3011 3010 3010 3010 3010 3010 3010 3010 3009 3009 3009 3008 3009 3008 3007 3007 3008 3009 3009 3009 3009 3010 3010 3009 3010 3010 3011 3011 3011 3012 3013 3013 3013 3014 3016 3018 3020 3021 3021 3021 3022 3023 3026 3028 3030 3032 3035 3036 3038 3039 3041 3043 3045 3047 3048 3049 3049 3050 3052 3052 3051 3050 3051 3052 3054 3053 3048 3046 3050 3053 3054 3055 3057 3058 3058 3060 3062 3063 3063 3064 3066 3070
3012 3011 3010 3009 3008 3008 3007 3006 3006 3006 3007 3007 3006 3006 3006 3006 3006 3006 3006 3004 3004 3006 3006 3006 3007 3006 3006 3006 3006 3006 3008 3008 3008 3008 3008 3009 3011 3011 3012 3014 3015 3016 3016 3016 3018 3020 3022 3024 3026 3028 3029 3031 3033 3035 3036 3037 3039 3041 3043 3045 3046 3047 3048 3048 3048 3049 3049 3049 3052 3052 3048 3044 3046 3049 3049 3050 3052 3054 3055 3055 3056 3058 3059 3060 3062 3064 3066
3009 3008 3007 3006 3005 3004 3003 3003 3002 3003 3003 3003 3003 3003 3003 3003 3003 3003 3004 3002 3001 3002 3003 3003 3003 3003 3003 3004 3004 3004 3004 3005 3005 3006 3006 3007 3008 3009 3010 3011 3011 3012 3013 3014 3016 3018 3019 3021 3023 3025 3026 3028 3030 3031 3031 3032 3035 3037 3040 3042 3043 3044 3046 3046 3046 3047 3047 3048 3049 3047 3043 3043 3047 3047 3046 3048 3049 3051 3051 3051 3051 3054 3055 3057 3058 3060 3063
3005 3005 3004 3003 3002 3001 3000 3000 2999 2999 3000 3000 3000 3000 3000 3000 3000 3001 3001 3000 2998 2999 3000 3000 3000 3000 3000 3001 3001 3001 3001 3002 3002 3003 3004 3005 3006 3006 3007 3008 3008 3009 3011 3012 3014 3016 3017 3019 3020 3021 3023 3026 3026 3026 3026 3028 3031 3033 3036 3038 3040 3041 3043 3045 3045 3044 3044 3046 3047 3044 3042 3043 3044 3044 3044 3045 3045 3046 3047 3046 3046 3049 3052 3053 3054 3056 3059
3002 3001 3001 3000 2999 2998 2997 2996 2996 2996 2996 2996 2997 2997 2997 2997 2998 2998 2998 2997 2996 2996 2997 2997 2998 2998 2997 2997 2997 2998 2998 2999 3000 3000 3001 3003 3003 3003 3004 3005 3006 3008 3009 3010 3011 3013 3014 3015 3016 3017 3018 3019 3019 3020 3022 3025 3026 3028 3032 3035 3036 3038 3040 3041 3042 3041 3042 3045 3045 3043 3039 3039 3040 3042 3042 3042 3041 3042 3042 3042 3042 3044 3047 3049 3050 3052 3054
2998 2998 2997 2996 2995 2995 2994 2993 2993 2993 2993 2993 2993 2994 2994 2994 2995 2995 2995 2995 2994 2993 2994 2994 2995 2994 2993 2993 2994 2996 2996 2997 2997 2998 2999 3000 3001 3001 3002 3002 3004 3006 3007 3008 3009 3010 3011 3011 3012 3012 3012 3012 3014 3016 3018 3020 3022 3025 3029 3031 3034 3035 3037 3038 3039 3038 3040 3042 3042 3040 3036 3035 3038 3040 3040 3040 3040 3039 3040 3040 3038 3040 3044 3045 3046 3047 3049
2995 2994 2994 2993 2992 2992 2991 2990 2990 2990 2990 2990 2990 2991 2991 2991 2992 2992 2992 2992 2991 2990 2992 2993 2992 2992 2992 2992 2993 2994 2994 2994 2995 2995 2996 2997 2999 2999 2999 3000 3002 3003 3005 3006 3006 3006 3007 3007 3008 3008 3009 3010 3012 3013 3013 3015 3018 3020 3024 3027 3030 3031 3033 3034 3034 3035 3036 3037 3037 3037 3036 3035 3035 3036 3037 3038 3038 3038 3040 3038 3034 3035 3039 3039 3040 3043 3044
2991 2991 2990 2990 2989 2989 2988 2988 2987 2987 2987 2987 2987 2988 2988 2989 2989 2989 2989 2989 2988 2987 2989 2991 2990 2990 2990 2991 2991 2991 2992 2992 2992 2992 2993 2995 2996 2996 2997 2998 3000 3001 3003 3004 3004 3003 3003 3004 3005 3006 3007 3008 3010 3010 3010 3011 3012 3015 3018 3022 3025 3027 3028 3029 3030 3030 3032 3033 3033 3033 3034 3033 3033 3034 3035 3036 3037 3037 3036 3033 3030 3032 3033 3033 3035 3038 3040
2988 2988 2988 2987 2987 2986 2985 2985 2985 2984 2984 2984 2984 2985 2986 2986 2987 2987 2987 2987 2986 2985 2987 2989 2988 2987 2988 2988 2988 2988 2989 2990 2990 2990 2991 2993 2993 2994 2995 2997 2998 2999 3000 3002 3002 3002 3002 3002 3002 3003 3005 3006 3007 3007 3006 3007 3009 3011 3015 3017 3019 3021 3023 3025 3026 3027 3028 3030 3030 3031 3031 3030 3030 3032 3033 3034 3035 3034 3031 3028 3028 3029 3029 3030 3031 3032 3034
2985 2985 2985 2985 2984 2983 2983 2983 2982 2982 2982 2982 2982 2983 2983 2984 2984 2984 2985 2984 2984 2983 2984 2985 2985 2984 2985 2985 2985 2986 2987 2987 2988 2989 2989 2990 2991 2992 2994 2995 2996 2997 2999 2999 3000 3001 3000 3000 3000 3001 3002 3003 3003 3004 3005 3005 3006 3008 3011 3014 3016 3017 3018 3019 3021 3022 3025 3027 3027 3028 3026 3024 3025 3029 3032 3032 3031 3030 3027 3026 3026 3026 3026 3027 3027 3028 3029
2982 2982 2982 2982 2982 2981 2980 2980 2980 2980 2980 2980 2980 2980 2981 2981 2982 2982 2982 2982 2981 2980 2981 2981 2981 2981 2981 2981 2982 2982 2983 2984 2986 2987 2987 2987 2988 2990 2992 2993 2993 2995 2996 2997 2997 2997 2997 2997 2997 2998 2999 3000 3001 3002 3003 3004 3004 3006 3009 3011 3013 3014 3014 3014 3016 3018 3020 3021 3021 3021 3020 3020 3022 3026 3029 3029 3028 3026 3026 3025 3024 3024 3024 3024 3024 3024 3025
2980 2980 2980 2980 2979 2979 2978 2978 2978 2977 2978 2978 2978 2978 2979 2979 2979 2980 2980 2980 2979 2977 2977 2977 2977 2977 2977 2978 2979 2979 2980 2981 2983 2983 2983 2985 2987 2988 2990 2991 2991 2993 2994 2994 2994 2994 2994 2995 2995 2996 2997 2999 2999 3000 3002 3003 3004 3006 3007 3008 3009 3009 3009 3011 3013 3015 3015 3016 3016 3017 3018 3019 3021 3023 3026 3026 3025 3024 3023 3023 3023 3022 3022 3021 3021 3021 3022
2978 2978 2977 2977 2977 2976 2976 2976 2975 2975 2976 2976 2977 2977 2977 2977 2977 2978 2978 2978 2976 2975 2974 2974 2974 2974 2975 2975 2976 2976 2976 2977 2979 2981 2982 2984 2985 2987 2989 2990 2990 2991 2992 2993 2993 2992 2992 2993 2993 2994 2995 2997 2998 2999 3001 3003 3004 3005 3005 3005 3005 3005 3007 3010 3011 3012 3014 3015 3016 3017 3018 3018 3019 3021 3023 3024 3023 3022 3021 3021 3021 3021 3020 3019 3019 3019 3020
2976 2976 2975 2975 2975 2975 2974 2974 2974 2974 2974 2975 2975 2975 2975 2976 2976 2976 2976 2976 2974 2973 2972 2972 2972 2972 2972 2973 2973 2973 2974 2976 2978 2979 2981 2982 2984 2986 2987 2988 2989 2990 2991 2992 2992 2991 2991 2992 2992 2992 2994 2996 2997 2998 3000 3001 3002 3002 3002 3002 3003 3003 3006 3008 3009 3010 3012 3013 3014 3015 3016 3016 3017 3019 3021 3023 3022 3021 3020 3020 3020 3020 3019 3018 3017 3018 3020
2974 2974 2974 2974 2973 2973 2973 2973 2973 2973 2973 2973 2974 2974 2974 2974 2974 2975 2974 2974 2973 2972 2970 2970 2970 2970 2969 2970 2970 2971 2972 2974 2976 2977 2979 2982 2984 2985 2985 2986 2988 2989 2990 2990 2990 2990 2991 2991 2992 2992 2994 2995 2995 2996 2998 2999 2999 2999 2999 3000 3001 3002 3004 3006 3007 3008 3010 3011 3011 3013 3014 3015 3015 3017 3020 3022 3022 3020 3020 3021 3021 3021 3020 3018 3017 3019 3022
2973 2973 2973 2972 2972 2972 2972 2972 2972 2972 2972 2972 2972 2972 2973 2973 2973 2973 2973 2972 2972 2971 2968 2967 2967 2967 2967 2967 2969 2969 2970 2972 2974 2976 2979 2982 2983 2984 2984 2985 2987 2988 2988 2989 2989 2990 2991 2992 2992 2993 2993 2993 2993 2994 2996 2997 2997 2998 2998 2999 3000 3002 3003 3004 3005 3007 3009 3010 3011 3012 3014 3014 3014 3015 3018 3020 3021 3020 3020 3020 3021 3022 3021 3019 3020 3024 3027
2972 2972 2972 2971 2971 2971 2971 2971 2971 2971 2971 2971 2971 2971 2971 2971 2971 2971 2971 2971 2971 2969 2967 2966 2966 2966 2965 2966 2967 2967 2969 2971 2974 2976 2979 2981 2982 2983 2984 2985 2987 2987 2987 2988 2989 2989 2990 2991 2992 2993 2994 2993 2993 2993 2995 2996 2997 2998 2999 2998 2999 3001 3002 3003 3006 3008 3009 3010 3010 3012 3013 3014 3014 3015 3017 3017 3018 3020 3021 3020 3021 3022 3022 3021 3023 3027 3031
2972 2971 2971 2971 2970 2970 2970 2970 2970 2970 2970 2970 2970 2970 2970 2970 2970 2970 2970 2970 2969 2968 2966 2965 2964 2964 2965 2965 2966 2967 2969 2971 2973 2975 2978 2980 2981 2983 2984 2985 2986 2987 2987 2988 2988 2989 2989 2991 2992 2992 2993 2993 2993 2993 2994 2996 2997 2998 2997 2997 2998 2999 3001 3002 3005 3007 3007 3008 3010 3011 3013 3014 3014 3017 3018 3017 3016 3018 3021 3021 3021 3022 3023 3023 3024 3028 3032
2972 2971 2971 2970 2970 2970 2969 2969 2970 2970 2969 2969 2969 2969 2969 2969 2969 2968 2968 2968 2968 2967 2965 2964 2963 2964 2964 2965 2965 2967 2969 2970 2973 2975 2977 2979 2981 2982 2984 2985 2986 2986 2986 2987 2987 2988 2989 2990 2991 2991 2992 2992 2993 2993 2994 2995 2996 2996 2996 2996 2997 2998 2999 3001 3003 3004 3006 3007 3008 3010 3012 3014 3014 3017 3019 3019 3018 3017 3018 3020 3021 3022 3024 3024 3024 3026 3030
2971 2971 2970 2970 2970 2969 2969 2969 2969 2969 2969 2969 2969 2969 2968 2968 2968 2968 2967 2967 2966 2965 2965 2964 2963 2963 2964 2964 2965 2966 2968 2970 2972 2974 2977 2979 2981 2982 2983 2984 2985 2986 2986 2986 2987 2987 2989 2989 2989 2990 2991 2991 2992 2992 2993 2994 2995 2995 2994 2995 2995 2996 2998 2999 3001 3002 3004 3006 3007 3009 3011 3013 3014 3015 3017 3019 3021 3019 3017 3018 3021 3022 3024 3024 3023 3024 3027
2971 2970 2970 2970 2969 2969 2969 2969 2969 2968 2969 2969 2968 2968 2968 2968 2968 2967 2967 2966 2966 2965 2965 2963 2962 2962 2964 2964 2965 2966 2968 2970 2972 2975 2977 2979 2980 2981 2982 2983 2985 2985 2986 2987 2987 2987 2988 2989 2989 2991 2991 2992 2992 2992 2993 2995 2995 2995 2995 2995 2995 2995 2996 2997 2998 3000 3002 3004 3006 3008 3009 3011 3013 3013 3014 3017 3020 3021 3019 3018 3020 3021 3023 3024 3024 3024 3026
2971 2971 2970 2970 2969 2969 2969 2968 2968 2968 2968 2968 2968 2968 2968 2968 2968 2968 2967 2967 2966 2965 2964 2963 2963 2963 2964 2965 2966 2967 2969 2971 2973 2975 2977 2978 2980 2981 2982 2983 2984 2985 2986 2987 2987 2988 2989 2990 2991 2992 2993 2993 2993 2993 2994 2995 2995 2995 2995 2995 2994 2994 2994 2995 2996 2997 2999 3001 3003 3005 3006 3007 3009 3011 3012 3014 3017 3019 3020 3020 3020 3020 3021 3022 3023 3024 3026
2972 2971 2971 2970 2969 2969 2969 2968 2968 2968 2968 2968 2968 2968 2968 2968 2968 2968 2967 2967 2966 2966 2965 2964 2964 2964 2964 2966 2967 2968 2969 2971 2972 2974 2976 2978 2980 2981 2982 2983 2984 2985 2986 2987 2988 2989 2990 2991 2993 2993 2994 2994 2995 2995 2995 2995 2995 2995 2996 2995 2994 2994 2994 2994 2995 2996 2998 3000 3001 3002 3003 3004 3007 3009 3012 3013 3015 3017 3019 3021 3021 3021 3020 3021 3023 3023 3024
2972 2971 2971 2970 2969 2969 2969 2968 2968 2968 2968 2968 2968 2968 2968 2968 2968 2968 2967 2967 2966 2966 2965 2965 2964 2964 2965 2966 2968 2969 2970 2971 2972 2974 2976 2978 2979 2981 2982 2984 2985 2986 2987 2988 2989 2990 2991 2993 2993 2993 2994 2995 2996 2996 2996 2996 2996 2996 2996 2995 2995 2995 2994 2994 2995 2996 2998 2999 3000 3001 3003 3005 3006 3008 3010 3011 3013 3015 3017 3019 3021 3021 3021 3022 3022 3023 3023
2972 2972 2971 2971 2970 2970 2969 2969 2969 2969 2968 2968 2968 2968 2968 2968 2968 2968 2968 2967 2967 2967 2966 2966 2966 2965 2965 2967 2968 2970 2971 2972 2974 2976 2977 2978 2980 2981 2982 2984 2985 2987 2988 2988 2989 2991 2992 2992 2993 2994 2995 2995 2996 2997 2997 2997 2997 2996 2996 2996 2996 2996 2997 2997 2997 2997 2999 2999 3000 3002 3004 3006 3006 3007 3007 3009 3012 3014 3016 3018 3019 3020 3020 3021 3022 3023 3024
2973 2973 2972 2972 2971 2971 2970 2970 2970 2970 2969 2969 2969 2969 2969 2969 2969 2969 2968 2968 2968 2968 2968 2967 2967 2966 2966 2967 2968 2969 2971 2973 2974 2976 2977 2979 2980 2981 2983 2985 2986 2987 2988 2989 2991 2992 2992 2992 2993 2994 2995 2996 2997 2998 2998 2999 2998 2997 2997 2997 2998 2998 3000 3000 3001 3001 3001 3002 3002 3003 3005 3006 3007 3007 3008 3009 3011 3014 3016 3017 3018 3019 3020 3021 3022 3023 3024
2975 2974 2974 2973 2973 2972 2972 2972 2971 2971 2970 2970 2970 2970 2969 2969 2970 2970 2969 2969 2969 2968 2969 2969 2968 2968 2968 2968 2969 2970 2972 2974 2975 2977 2978 2979 2981 2982 2984 2986 2987 2987 2988 2990 2991 2991 2992 2992 2993 2994 2995 2996 2998 2998 2999 3000 3000 2999 2998 2999 3000 3000 3002 3003 3003 3004 3004 3004 3004 3005 3006 3007 3008 3009 3009 3010 3011 3012 3014 3015 3016 3017 3018 3019 3020 3021 3022
2977 2976 2975 2974 2974 2974 2973 2973 2973 2972 2972 2971 2971 2971 2970 2970 2970 2971 2970 2970 2970 2970 2970 2970 2970 2969 2969 2969 2970 2972 2973 2974 2976 2978 2979 2980 2982 2983 2985 2986 2986 2987 2988 2990 2990 2991 2992 2993 2994 2995 2996 2997 2998 2999 3000 3001 3001 3001 3001 3001 3002 3002 3003 3004 3005 3005 3006 3006 3007 3007 3008 3009 3009 3010 3010 3011 3011 3012 3012 3014 3015 3016 3016 3017 3018 3019 3020
2978 2978 2977 2976 2976 2975 2975 2974 2974 2973 2973 2972 2972 2972 2972 2972 2972 2972 2972 2971 2971 2971 2971 2970 2970 2970 2970 2971 2972 2973 2974 2975 2976 2978 2980 2981 2982 2983 2985 2986 2986 2987 2989 2990 2990 2991 2992 2994 2995 2995 2996 2997 2998 2999 3000 3001 3002 3003 3003 3004 3004 3004 3005 3005 3005 3006 3006 3007 3008 3009 3010 3011 3011 3011 3011 3012 3012 3012 3012 3013 3015 3016 3017 3017 3018 3018 3019
2980 2980 2979 2978 2977 2977 2977 2976 2975 2975 2974 2974 2973 2973 2973 2973 2973 2973 2973 2973 2972 2972 2972 2972 2971 2972 2972 2973 2973 2974 2975 2975 2976 2977 2980 2981 2982 2983 2985 2986 2986 2988 2990 2990 2990 2992 2993 2994 2995 2996 2997 2998 2999 2999 3000 3002 3003 3004 3005 3006 3006 3006 3006 3006 3007 3007 3008 3009 3010 3010 3011 3012 3012 3012 3012 3013 3013 3013 3013 3014 3015 3016 3017 3017 3017 3017 3018
2983 2982 2981 2980 2980 2979 2978 2977 2977 2976 2976 2975 2975 2975 2975 2974 2974 2974 2974 2974 2974 2974 2974 2974 2974 2974 2974 2974 2974 2975 2976 2976 2977 2978 2980 2981 2982 2984 2985 2986 2987 2988 2990 2990 2990 2992 2994 2995 2996 2997 2998 2999 2999 3000 3001 3003 3004 3006 3006 3007 3007 3008 3008 3008 3009 3009 3009 3010 3011 3012 3012 3012 3012 3013 3013 3013 3013 3014 3014 3015 3015 3015 3016 3016 3016 3016 3016
2985 2984 2983 2982 2981 2980 2980 2979 2978 2978 2977 2977 2976 2976 2976 2975 2975 2975 2975 2975 2976 2975 2975 2975 2975 2975 2975 2975 2975 2976 2977 2978 2979 2979 2980 2981 2982 2984 2986 2987 2988 2989 2989 2989 2990 2992 2994 2995 2996 2997 2998 2999 3000 3001 3002 3003 3005 3006 3007 3008 3008 3009 3009 3009 3010 3011 3011 3012 3012 3013 3013 3013 3013 3013 3013 3013 3013 3013 3014 3014 3014 3014 3015 3014 3014 3014 3014
2987 2986 2985 2984 2983 2982 2981 2980 2980 2979 2979 2978 2978 2977 2977 2977 2977 2977 2977 2976 2976 2976 2976 2976 2976 2976 2977 2977 2977 2978 2978 2979 2980 2981 2981 2982 2983 2985 2987 2988 2988 2988 2988 2989 2990 2992 2994 2995 2996 2998 2999 3000 3000 3002 3003 3004 3006 3007 3009 3009 3009 3010 3010 3011 3011 3012 3013 3013 3013 3013 3013 3013 3013 3012 3012 3012 3012 3012 3013 3013 3013 3013 3013 3013 3012 3012 3011
2988 2987 2986 2985 2984 2983 2983 2982 2981 2980 2980 2980 2979 2979 2979 2978 2978 2978 2978 2978 2977 2977 2977 2976 2976 2977 2978 2978 2978 2979 2980 2981 2981 2982 2983 2984 2985 2986 2987 2988 2988 2989 2989 2990 2991 2993 2995 2996 2997 2999 3000 3001 3001 3003 3004 3005 3006 3008 3009 3010 3010 3011 3011 3012 3012 3013 3013 3013 3013 3012 3012 3012 3012 3012 3012 3012 3012 3012 3012 3012 3012 3012 3011 3011 3010 3010 3010
2989 2988 2988 2987 2986 2985 2984 2983 2983 2982 2981 2981 2980 2980 2980 2980 2979 2979 2979 2979 2978 2977 2977 2977 2977 2977 2978 2979 2979 2980 2981 2982 2983 2984 2984 2985 2986 2987 2988 2988 2988 2989 2990 2991 2991 2993 2995 2996 2997 2999 3001 3002 3002 3004 3005 3006 3007 3009 3010 3010 3011 3011 3012 3012 3013 3013 3013 3013 3012 3012 3012 3012 3011 3011 3012 3011 3011 3011 3011 3011 3011 3010 3010 3009 3009 3009 3010
2991 2990 2990 2989 2988 2987 2986 2985 2984 2983 2983 2982 2982 2982 2981 2981 2981 2980 2980 2979 2979 2978 2977 2977 2978 2978 2979 2979 2981 2982 2982 2983 2984 2985 2985 2986 2987 2987 2988 2988 2989 2990 2991 2991 2992 2994 2996 2997 2998 3000 3001 3002 3003 3005 3006 3007 3008 3009 3010 3011 3012 3012 3013 3013 3013 3013 3013 3013 3013 3012 3012 3012 3012 3012 3012 3012 3012 3012 3012 3011 3011 3011 3010 3010 3010 3010 3010
2993 2992 2991 2990 2990 2989 2988 2987 2986 2986 2985 2984 2984 2983 2983 2982 2982 2982 2981 2980 2979 2979 2979 2979 2979 2980 2980 2981 2982 2983 2983 2984 2985 2985 2986 2987 2988 2988 2988 2989 2990 2991 2992 2992 2994 2996 2998 2999 3000 3001 3002 3004 3005 3006 3007 3007 3008 3010 3011 3013 3013 3014 3014 3014 3014 3014 3014 3014 3014 3014 3014 3013 3013 3013 3013 3013 3013 3013 3012 3012 3012 3012 3011 3011 3011 3011 3011
2996 2994 2993 2992 2992 2992 2992 2991 2990 2989 2987 2986 2986 2985 2984 2983 2984 2983 2983 2982 2981 2981 2981 2982 2982 2982 2982 2983 2983 2984 2984 2985 2985 2986 2987 2988 2989 2989 2990 2990 2991 2992 2993 2994 2995 2997 2999 3000 3001 3002 3004 3005 3006 3007 3007 3008 3010 3012 3013 3014 3015 3015 3015 3015 3015 3015 3015 3015 3015 3015 3014 3014 3014 3014 3014 3014 3013 3013 3013 3013 3013 3012 3012 3011 3011 3011 3011
2999 2997 2996 2995 2996 2996 2995 2994 2992 2990 2989 2988 2988 2987 2986 2985 2986 2985 2985 2985 2984 2984 2985 2985 2984 2984 2984 2984 2984 2985 2985 2986 2987 2988 2989 2989 2990 2990 2991 2992 2993 2995 2996 2996 2997 2998 3000 3001 3003 3004 3005 3006 3007 3008 3009 3011 3012 3014 3014 3015 3016 3016 3016 3016 3016 3016 3016 3016 3016 3015 3015 3014 3014 3014 3013 3013 3013 3013 3014 3013 3013 3013 3012 3012 3012 3011 3011
3002 3001 2999 2999 2999 2998 2997 2996 2994 2993 2992 2992 2991 2990 2989 2989 2989 2988 2988 2988 2988 2987 2987 2987 2987 2986 2986 2985 2985 2986 2987 2988 2989 2990 2991 2991 2992 2992 2993 2994 2995 2996 2997 2998 2999 3000 3001 3003 3005 3006 3007 3008 3009 3010 3011 3013 3014 3015 3015 3016 3016 3017 3017 3017 3017 3017 3017 3016 3016 3015 3015 3014 3014 3013 3013 3013 3013 3013 3013 3013 3013 3012 3012 3012 3011 3011 3011
3005 3004 3003 3003 3003 3002 3000 2999 2998 2997 2996 2995 2994 2993 2992 2992 2991 2991 2991 2990 2990 2989 2989 2989 2989 2988 2987 2986 2986 2988 2989 2990 2991 2991 2993 2994 2995 2995 2996 2997 2998 2999 2999 3000 3001 3002 3003 3005 3006 3007 3008 3009 3010 3012 3013 3014 3015 3016 3016 3017 3017 3017 3017 3017 3017 3017 3017 3017 3016 3016 3015 3014 3014 3014 3014 3013 3013 3013 3013 3013 3012 3012 3011 3011 3010 3010 3010
3008 3007 3007 3007 3007 3005 3004 3003 3002 3001 3000 2999 2998 2997 2996 2994 2994 2993 2993 2992 2992 2991 2992 2992 2992 2991 2989 2988 2989 2990 2991 2992 2993 2994 2995 2997 2998 2998 2999 3000 3002 3002 3002 3003 3003 3004 3005 3007 3008 3009 3009 3010 3012 3013 3014 3015 3016 3017 3017 3018 3018 3018 3018 3018 3018 3018 3018 3017 3017 3016 3016 3015 3015 3014 3014 3014 3013 3013 3013 3012 3012 3011 3010 3010 3009 3009 3009